This is the latest recevied weather packets stored in our database for station/object CT2IRJ-11. If no packets are shown the sender has not sent any weather packets the latest 10 day(s).
| Time | Temp. | Humidity | Pressure | Rain* | Wind** | Luminosity | Snow |
|---|---|---|---|---|---|---|---|
| 1777142609 | 22.78° C | 58% | 1014.9 hPa | 0 mm | - | 28 W/m² | - |
| 1777142309 | 23.33° C | 57% | 1014.9 hPa | 0 mm | - | 35 W/m² | - |
| 1777142010 | 23.33° C | 55% | 1014.9 hPa | 0 mm | - | 40 W/m² | - |
| 1777141710 | 23.89° C | 56% | 1014.9 hPa | 0 mm | - | 45 W/m² | - |
| 1777141409 | 23.89° C | 54% | 1015.2 hPa | 0 mm | - | 51 W/m² | - |
| 1777141109 | 24.44° C | 54% | 1015.2 hPa | 0 mm | - | 59 W/m² | - |
| 1777140809 | 24.44° C | 54% | 1014.9 hPa | 0 mm | - | 83 W/m² | - |
| 1777140510 | 24.44° C | 54% | 1014.9 hPa | 0 mm | - | 93 W/m² | - |
| 1777140210 | 24.44° C | 53% | 1014.9 hPa | 0 mm | - | 95 W/m² | - |
| 1777139910 | 24.44° C | 53% | 1014.9 hPa | 0 mm | - | 104 W/m² | - |
| 1777139610 | 25° C | 52% | 1014.9 hPa | 0 mm | - | 115 W/m² | - |
| 1777139310 | 25° C | 52% | 1014.9 hPa | 0 mm | - | 134 W/m² | - |
| 1777139009 | 25.56° C | 52% | 1014.9 hPa | 0 mm | - | 150 W/m² | - |
| 1777138709 | 25.56° C | 51% | 1014.9 hPa | 0 mm | - | 99 W/m² | - |
| 1777138410 | 26.11° C | 52% | 1014.2 hPa | 0 mm | - | 109 W/m² | - |
| 1777138110 | 26.11° C | 51% | 1014.6 hPa | 0 mm | - | 199 W/m² | - |
| 1777137810 | 26.67° C | 51% | 1014.2 hPa | 0 mm | - | 227 W/m² | - |
| 1777137509 | 26.67° C | 52% | 1014.2 hPa | 0 mm | - | 208 W/m² | - |
| 1777137210 | 26.67° C | 51% | 1014.2 hPa | 0 mm | - | 212 W/m² | - |
| 1777136909 | 26.67° C | 52% | 1014.2 hPa | 0 mm | - | 243 W/m² | - |
| 1777136610 | 26.11° C | 52% | 1014.2 hPa | 0 mm | - | 239 W/m² | - |
| 1777136309 | 25.56° C | 55% | 1014.6 hPa | 0 mm | - | 255 W/m² | - |
| 1777136010 | 25° C | 56% | 1014.6 hPa | 0 mm | - | 156 W/m² | - |
| 1777135709 | 25° C | 58% | 1014.2 hPa | 0 mm | - | 154 W/m² | - |
| 1777135410 | 25° C | 58% | 1014.2 hPa | 0 mm | - | 125 W/m² | - |
* Rain latest hour (hover to see other rain measurements)
** Current wind speed in m/s (hover to see current wind gust speed)